STARLINK-37667, 69045

Orbit data source: Space-Track

STARLINK-37667, 69045 is a payload satellite owned by SpaceX/Seattle (US) in SSO that was launched on Wed, 06 May 2026 UTC via an FALCON 9 launch vehicle from the Air Force Western Test Range (AFWTR). Payload-class satellites include a variety of spacecraft equipped with specific instruments for various scientific and technological missions. These include communications satellites like Starlink; space stations such as the ISS; scientific satellites like the Hubble; Earth observation satellites from companies like Planet Labs, Umbra, and HawkEye 360; GPS; miniature CubeSats for education and research; and military/defense satellites.

Loading next visibility...
Identifier
69045, 2026-101W
Orbit
SSO
Country
Flag of USUS
Related business
Manufacturer
SpaceX/Seattle
Mission
Operational Commercial Communications
Bus & Motor
STARLINK V2MO, Unknown motor
Mass
575 kg wet, ~530 kg dry
Launch date (UTC)
2026-05-06 (3 months ago)
Launch vehicle
FALCON 9
Launch site
Air Force Western Test Range (AFWTR)
Object type
Payload
Rocket body
Debris
Shape & HBR
Box + 2 Pan, 17.7 m
Radar Cross Section
36.964 m², Large (>1 m²)

Expand to show TLE details & history
Last TLE update: 1 day ago

TLE from 1 day ago
0 STARLINK-37667
1 69045U 26101W   26206.15866267  .00014488  00000-0  45043-3 0  9995
2 69045  97.2845  60.4958 0002386  75.8115 284.3392 15.33430432 12393
Epoch: 2026-07-25T03:48Z
TLE epoch observation values (Epoch: 2026-07-25T03:48:28.454Z)
Latitude
-0.00011°
Longitude
60.5023°
Altitude
468.294 km
Speed
7.632 km/s
True Right ascension
04h 01m 58s
True Declination
0° 00' 00"
Sunlit
Object was in daylight at epoch
Visualization orbit readout
Latitude
Unknown
Longitude
Unknown
Altitude
Unknown
Speed
Unknown
Apparent Right ascension
Unknown
Apparent Declination
Unknown
Sunlit
N/A
Visualization observer readout
Local Sidereal Time
18:02:59
Azimuth
Unknown
Elevation
Unknown
Doppler factor
Unknown
Orbital elements
Apogee altitude
464.161 km
Perigee altitude
460.897 km
Semi-major axis
6,840.666 km
Eccentricity
0.00024
Inclination
97.2845°
RAAN
60.4958°
Arg. of periapsis
75.8115°
True anomaly
284.31271°
Mean anomaly
284.3392°
Eccentric anomaly
284.32595°
Mean motion
3.83615 °/min
Orbital period
93.84 mins
BSTAR
0.00045043
Loading maneuver chart data...
Computing Atmospheric mass density...
Loading historical data...
Loading historical data...
Loading historical data...
Loading historical data...
Loading historical data...
Loading historical data...
Loading historical data...

Documentation

Showing up to 5 results
|